This is the latest recevied weather packets stored in our database for station/object W9WRP. If no packets are shown the sender has not sent any weather packets the latest 10 day(s).
| Time | Temp. | Humidity | Pressure | Rain* | Wind** | Luminosity | Snow |
|---|---|---|---|---|---|---|---|
| 1787515780 | 43.33° C | 16% | 1015.3 hPa | 0 mm | - | 711 W/m² | - |
| 1787515476 | 43.89° C | 16% | 1014.9 hPa | 0 mm | - | 714 W/m² | - |
| 1787515170 | 43.89° C | 16% | 1014.9 hPa | 0 mm | - | 718 W/m² | - |
| 1787514866 | 43.33° C | 16% | 1014.9 hPa | 0 mm | - | 720 W/m² | - |
| 1787514561 | 43.89° C | 15% | 1015.3 hPa | 0 mm | - | 720 W/m² | - |
| 1787514258 | 42.78° C | 16% | 1015.4 hPa | 0 mm | - | 717 W/m² | - |
| 1787513957 | 42.78° C | 17% | 1015.3 hPa | 0 mm | - | 722 W/m² | - |
| 1787513652 | 43.89° C | 16% | 1015.4 hPa | 0 mm | - | 724 W/m² | - |
| 1787513348 | 42.22° C | 17% | 1015.7 hPa | 0 mm | - | 723 W/m² | - |
| 1787513044 | 43.89° C | 17% | 1015.5 hPa | 0 mm | - | 726 W/m² | - |
| 1787512740 | 43.89° C | 16% | 1015.8 hPa | 0 mm | - | 730 W/m² | - |
| 1787512435 | 42.22° C | 17% | 1016 hPa | 0 mm | - | 730 W/m² | - |
| 1787512131 | 42.78° C | 17% | 1015.8 hPa | 0 mm | - | 727 W/m² | - |
| 1787511826 | 42.22° C | 18% | 1015.9 hPa | 0 mm | - | 727 W/m² | - |
| 1787511520 | 41.67° C | 18% | 1016.3 hPa | 0 mm | - | 725 W/m² | - |
| 1787511219 | 41.67° C | 18% | 1016.3 hPa | 0 mm | - | 725 W/m² | - |
| 1787510919 | 42.22° C | 18% | 1016.5 hPa | 0 mm | - | 718 W/m² | - |
| 1787510614 | 41.67° C | 18% | 1016.4 hPa | 0 mm | - | 716 W/m² | - |
| 1787510310 | 41.11° C | 19% | 1016.2 hPa | 0 mm | - | 715 W/m² | - |
| 1787510006 | 41.11° C | 19% | 1016.4 hPa | 0 mm | - | 710 W/m² | - |
| 1787509701 | 41.67° C | 18% | 1016.4 hPa | 0 mm | - | 706 W/m² | - |
| 1787509398 | 41.11° C | 19% | 1016.5 hPa | 0 mm | - | 702 W/m² | - |
| 1787509093 | 41.11° C | 18% | 1016.4 hPa | 0 mm | - | 697 W/m² | - |
| 1787508788 | 40.56° C | 19% | 1016.6 hPa | 0 mm | - | 690 W/m² | - |
| 1787508483 | 40.56° C | 19% | 1016.4 hPa | 0 mm | - | 684 W/m² | - |
* Rain latest hour (hover to see other rain measurements)
** Current wind speed in m/s (hover to see current wind gust speed)